| time (UTC) | temp F | wind direction | speed knots | gust knots | rain 1hr in | rain 24hr in | rain mn in | humidity % | barometer mb |
| 20260906121533 | 57 | 0 | 0.0 | 0.0 | 0.00 | 0.00 | 0.00 | 96 | 1020.3 |
| 20260906120035 | 57 | 0 | 0.0 | 0.0 | 0.00 | 0.00 | 0.00 | 96 | 1020.2 |
| 20260906114536 | 57 | 0 | 0.0 | 0.0 | 0.00 | 0.00 | 0.00 | 96 | 1020.0 |
| 20260906113034 | 56 | 0 | 0.0 | 0.0 | 0.00 | 0.00 | 0.00 | 95 | 1019.8 |
| 20260906111536 | 57 | 0 | 0.0 | 0.0 | 0.00 | 0.00 | 0.00 | 95 | 1019.8 |
| 20260906110035 | 57 | 0 | 0.0 | 0.0 | 0.00 | 0.00 | 0.00 | 95 | 1019.7 |
| 20260906104538 | 57 | 0 | 0.0 | 0.0 | 0.00 | 0.00 | 0.00 | 94 | 1019.8 |
| 20260906103034 | 57 | 0 | 0.0 | 0.0 | 0.00 | 0.00 | 0.00 | 94 | 1019.8 |
| 20260906101534 | 58 | 0 | 0.0 | 0.0 | 0.00 | 0.00 | 0.00 | 93 | 1019.7 |
| 20260906100036 | 58 | 0 | 0.0 | 0.9 | 0.00 | 0.00 | 0.00 | 93 | 1019.6 |
| 20260906094534 | 58 | 0 | 0.0 | 0.0 | 0.00 | 0.00 | 0.00 | 93 | 1019.5 |
| 20260906093046 | 58 | 0 | 0.0 | 0.9 | 0.00 | 0.00 | 0.00 | 93 | 1019.6 |
| 20260906091535 | 58 | 0 | 0.0 | 0.0 | 0.00 | 0.00 | 0.00 | 92 | 1019.5 |
| 20260906090035 | 59 | 0 | 0.0 | 0.0 | 0.00 | 0.00 | 0.00 | 91 | 1019.4 |
| 20260906084542 | 59 | 0 | 0.0 | 0.9 | 0.00 | 0.00 | 0.00 | 90 | 1019.2 |
| 20260906083035 | 60 | 0 | 0.0 | 0.9 | 0.00 | 0.00 | 0.00 | 89 | 1019.1 |
| 20260906081534 | 60 | 0 | 0.0 | 1.7 | 0.00 | 0.00 | 0.00 | 87 | 1018.9 |
| 20260906080049 | 61 | 112 | 0.9 | 1.7 | 0.00 | 0.00 | 0.00 | 87 | 1018.8 |
| 20260906074600 | 61 | 84 | 0.9 | 1.7 | 0.00 | 0.00 | 0.00 | 86 | 1018.9 |
| 20260906073035 | 62 | 0 | 0.0 | 2.6 | 0.00 | 0.00 | 0.00 | 85 | 1018.8 |
| 20260906071534 | 62 | 86 | 0.9 | 2.6 | 0.00 | 0.00 | 0.00 | 85 | 1018.8 |
| 20260906070039 | 62 | 139 | 0.0 | 1.7 | 0.00 | 0.00 | 0.00 | 85 | 1018.8 |
| 20260906064536 | 63 | 0 | 0.0 | 2.6 | 0.00 | 0.00 | 0.00 | 84 | 1018.8 |
| 20260906063036 | 63 | 82 | 0.9 | 4.3 | 0.00 | 0.00 | 0.00 | 83 | 1018.9 |
| 20260906061539 | 64 | 79 | 0.9 | 2.6 | 0.00 | 0.00 | 0.00 | 83 | 1018.9 |
| 20260906060037 | 64 | 94 | 0.9 | 2.6 | 0.00 | 0.00 | 0.00 | 82 | 1018.9 |
| 20260906054535 | 65 | 150 | 0.0 | 1.7 | 0.00 | 0.00 | 0.00 | 82 | 1018.8 |
| 20260906053036 | 65 | 132 | 0.0 | 4.3 | 0.00 | 0.00 | 0.00 | 80 | 1018.6 |
| 20260906051537 | 66 | 79 | 1.7 | 5.2 | 0.00 | 0.00 | 0.00 | 78 | 1018.5 |
| 20260906050035 | 66 | 115 | 1.7 | 4.3 | 0.00 | 0.00 | 0.00 | 78 | 1018.5 |
| 20260906044536 | 67 | 100 | 0.9 | 6.1 | 0.00 | 0.00 | 0.00 | 77 | 1018.5 |
| 20260906043036 | 67 | 158 | 1.7 | 5.2 | 0.00 | 0.00 | 0.00 | 76 | 1018.2 |
| 20260906041542 | 68 | 165 | 2.6 | 6.1 | 0.00 | 0.00 | 0.00 | 76 | 1018.0 |
| 20260906040038 | 68 | 87 | 2.6 | 6.1 | 0.00 | 0.00 | 0.00 | 77 | 1018.0 |
| 20260906034537 | 69 | 74 | 2.6 | 8.7 | 0.00 | 0.00 | 0.00 | 77 | 1017.8 |
| 20260906033036 | 69 | 107 | 2.6 | 7.0 | 0.00 | 0.00 | 0.00 | 79 | 1017.8 |
| 20260906031534 | 69 | 169 | 1.7 | 6.1 | 0.00 | 0.00 | 0.00 | 81 | 1017.8 |
| 20260906030037 | 69 | 0 | 0.0 | 0.9 | 0.00 | 0.00 | 0.00 | 80 | 1017.8 |
| 20260906024535 | 70 | 0 | 0.0 | 1.7 | 0.00 | 0.00 | 0.00 | 79 | 1017.4 |
| 20260906023043 | 71 | 72 | 0.0 | 2.6 | 0.00 | 0.00 | 0.00 | 77 | 1017.3 |
| 20260906021534 | 71 | 65 | 0.9 | 3.5 | 0.00 | 0.00 | 0.00 | 76 | 1017.2 |
| 20260906020034 | 72 | 0 | 0.9 | 3.5 | 0.00 | 0.00 | 0.00 | 76 | 1017.1 |
| 20260906014538 | 73 | 119 | 0.9 | 3.5 | 0.00 | 0.00 | 0.00 | 74 | 1017.0 |
| 20260906013034 | 74 | 131 | 1.7 | 4.3 | 0.00 | 0.00 | 0.00 | 74 | 1017.0 |
| 20260906010036 | 74 | 0 | 0.0 | 3.5 | 0.00 | 0.00 | 0.00 | 77 | 1016.4 |
| 20260906004535 | 75 | 70 | 0.9 | 3.5 | 0.00 | 0.00 | 0.00 | 76 | 1016.3 |
| 20260906003034 | 75 | 58 | 0.0 | 1.7 | 0.00 | 0.00 | 0.00 | 77 | 1016.1 |
| 20260906001534 | 75 | 83 | 0.0 | 0.9 | 0.00 | 0.00 | 0.00 | 77 | 1016.2 |
| 20260906000034 | 76 | 84 | 0.0 | 3.5 | 0.00 | 0.00 | 0.00 | 76 | 1016.1 |
| 20260905234533 | 76 | 0 | 0.9 | 2.6 | 0.00 | 0.00 | 0.00 | 76 | 1016.2 |
| 20260905233042 | 77 | 62 | 0.9 | 2.6 | 0.00 | 0.00 | 0.00 | 76 | 1016.2 |
| 20260905231549 | 77 | 0 | 0.0 | 2.6 | 0.00 | 0.00 | 0.00 | 74 | 1016.0 |
| 20260905230034 | 78 | 31 | 0.9 | 3.5 | 0.00 | 0.00 | 0.00 | 72 | 1016.1 |
| 20260905224539 | 78 | 41 | 0.9 | 2.6 | 0.00 | 0.00 | 0.00 | 74 | 1016.0 |
| 20260905223035 | 77 | 98 | 1.7 | 5.2 | 0.00 | 0.00 | 0.00 | 74 | 1016.0 |
| 20260905221539 | 77 | 79 | 0.9 | 2.6 | 0.00 | 0.00 | 0.00 | 75 | 1015.7 |
| 20260905214534 | 77 | 77 | 0.9 | 3.5 | 0.00 | 0.00 | 0.00 | 76 | 1015.4 |
| 20260905213037 | 77 | 134 | 1.7 | 7.0 | 0.00 | 0.00 | 0.00 | 76 | 1015.6 |
| 20260905211535 | 77 | 116 | 2.6 | 7.0 | 0.00 | 0.00 | 0.00 | 75 | 1015.6 |
| 20260905210035 | 76 | 170 | 2.6 | 5.2 | 0.00 | 0.00 | 0.00 | 80 | 1015.4 |
| 20260905204537 | 76 | 44 | 1.7 | 7.0 | 0.00 | 0.00 | 0.00 | 83 | 1015.4 |
| 20260905203038 | 75 | 105 | 0.9 | 4.3 | 0.00 | 0.00 | 0.00 | 85 | 1015.7 |
| 20260905201535 | 74 | 76 | 0.9 | 3.5 | 0.00 | 0.00 | 0.00 | 87 | 1015.9 |
| 20260905200033 | 73 | 45 | 0.9 | 3.5 | 0.00 | 0.00 | 0.00 | 87 | 1015.9 |
| 20260905194535 | 72 | 69 | 0.9 | 3.5 | 0.00 | 0.00 | 0.00 | 89 | 1015.9 |
| 20260905193035 | 71 | 82 | 2.6 | 5.2 | 0.00 | 0.00 | 0.00 | 91 | 1016.2 |
| 20260905191534 | 71 | 53 | 2.6 | 5.2 | 0.00 | 0.00 | 0.00 | 92 | 1016.2 |
| 20260905190056 | 71 | 46 | 1.7 | 6.1 | 0.00 | 0.00 | 0.00 | 92 | 1016.3 |
| 20260905184553 | 71 | 106 | 0.9 | 4.3 | 0.00 | 0.00 | 0.00 | 91 | 1016.4 |
| 20260905183036 | 71 | 90 | 1.7 | 3.5 | 0.00 | 0.00 | 0.00 | 91 | 1016.5 |
| 20260905181534 | 70 | 100 | 0.9 | 4.3 | 0.00 | 0.00 | 0.00 | 91 | 1016.4 |
| 20260905180035 | 70 | 101 | 2.6 | 4.3 | 0.00 | 0.00 | 0.00 | 91 | 1016.4 |
| 20260905174543 | 71 | 60 | 1.7 | 4.3 | 0.00 | 0.00 | 0.00 | 91 | 1016.3 |
| 20260905173039 | 70 | 60 | 1.7 | 5.2 | 0.00 | 0.00 | 0.00 | 92 | 1016.2 |
| 20260905171533 | 70 | 87 | 0.9 | 4.3 | 0.00 | 0.00 | 0.00 | 93 | 1016.2 |
| 20260905170033 | 69 | 174 | 1.7 | 3.5 | 0.00 | 0.00 | 0.00 | 94 | 1016.3 |
| 20260905164536 | 70 | 89 | 0.9 | 3.5 | 0.00 | 0.03 | 0.00 | 92 | 1016.3 |
| 20260905163036 | 70 | 101 | 1.7 | 5.2 | 0.00 | 0.03 | 0.00 | 90 | 1016.4 |
| 20260905161533 | 70 | 153 | 2.6 | 4.3 | 0.00 | 0.03 | 0.00 | 90 | 1016.4 |
| 20260905160035 | 71 | 66 | 1.7 | 4.3 | 0.00 | 0.03 | 0.00 | 88 | 1016.3 |
| 20260905154534 | 71 | 84 | 1.7 | 5.2 | 0.00 | 0.06 | 0.00 | 88 | 1016.0 |
| 20260905153036 | 71 | 84 | 2.6 | 6.1 | 0.00 | 0.06 | 0.00 | 88 | 1015.9 |
| 20260905151534 | 71 | 84 | 1.7 | 4.3 | 0.00 | 0.06 | 0.00 | 88 | 1016.0 |
| 20260905150034 | 71 | 79 | 2.6 | 4.3 | 0.00 | 0.06 | 0.00 | 88 | 1016.0 |
| 20260905144541 | 71 | 68 | 1.7 | 4.3 | 0.00 | 0.09 | 0.00 | 89 | 1015.7 |
| 20260905143035 | 70 | 106 | 1.7 | 8.7 | 0.00 | 0.09 | 0.00 | 90 | 1015.6 |
| 20260905141542 | 70 | 141 | 3.5 | 7.8 | 0.00 | 0.09 | 0.00 | 90 | 1015.7 |
| 20260905140031 | 70 | 146 | 2.6 | 7.8 | 0.00 | 0.09 | 0.00 | 90 | 1015.4 |
| 20260905134535 | 70 | 113 | 2.6 | 6.1 | 0.00 | 0.10 | 0.00 | 91 | 1015.3 |
| 20260905133032 | 70 | 91 | 1.7 | 7.0 | 0.00 | 0.10 | 0.00 | 91 | 1015.4 |
| 20260905131552 | 70 | 77 | 2.6 | 6.1 | 0.00 | 0.10 | 0.00 | 92 | 1015.2 |
| 20260905130035 | 70 | 70 | 1.7 | 5.2 | 0.00 | 0.10 | 0.00 | 93 | 1015.0 |
| 20260905124546 | 70 | 72 | 3.5 | 5.2 | 0.00 | 0.61 | 0.00 | 94 | 1015.0 |
| 20260905123045 | 70 | 70 | 2.6 | 4.3 | 0.00 | 0.61 | 0.00 | 96 | 1014.5 |